Year,Month,Day,Hour,Minute,Value (Times are PST for temperature in C)
2011,08,29,00,00,16.20
2011,08,29,00,01,16.20
2011,08,29,00,02,16.20
2011,08,29,00,03,16.20
2011,08,29,00,04,16.20
2011,08,29,00,05,16.10
2011,08,29,00,06,16.10
2011,08,29,00,07,16.10
2011,08,29,00,08,16.10
2011,08,29,00,09,16.10
2011,08,29,00,10,16.00
2011,08,29,00,11,16.00
2011,08,29,00,12,16.00
2011,08,29,00,13,16.10
2011,08,29,00,14,16.10
2011,08,29,00,15,16.10
2011,08,29,00,16,16.10
2011,08,29,00,17,16.20
2011,08,29,00,18,16.20
2011,08,29,00,19,16.20
2011,08,29,00,20,16.20
2011,08,29,00,21,16.20
2011,08,29,00,22,16.20
2011,08,29,00,23,16.20
2011,08,29,00,24,16.30
2011,08,29,00,25,16.30
2011,08,29,00,26,16.30
2011,08,29,00,27,16.30
2011,08,29,00,28,16.30
2011,08,29,00,29,16.30
2011,08,29,00,30,16.30
2011,08,29,00,31,16.30
2011,08,29,00,32,16.30
2011,08,29,00,33,16.30
2011,08,29,00,34,16.40
2011,08,29,00,35,16.40
2011,08,29,00,36,16.40
2011,08,29,00,37,16.40
2011,08,29,00,38,16.40
2011,08,29,00,39,16.40
2011,08,29,00,40,16.40
2011,08,29,00,41,16.40
2011,08,29,00,42,16.40
2011,08,29,00,43,16.30
2011,08,29,00,44,16.30
2011,08,29,00,45,16.30
2011,08,29,00,46,16.30
2011,08,29,00,47,16.30
2011,08,29,00,48,16.30
2011,08,29,00,49,16.30
2011,08,29,00,50,16.30
2011,08,29,00,51,16.30
2011,08,29,00,52,16.30
2011,08,29,00,53,16.30
2011,08,29,00,54,16.30
2011,08,29,00,55,16.30
2011,08,29,00,56,16.30
2011,08,29,00,57,16.30
2011,08,29,00,58,16.30
2011,08,29,00,59,16.30
2011,08,29,01,00,16.30
2011,08,29,01,01,16.30
2011,08,29,01,02,16.30
2011,08,29,01,03,16.30
2011,08,29,01,04,16.30
2011,08,29,01,05,16.40
2011,08,29,01,06,16.30
2011,08,29,01,07,16.30
2011,08,29,01,08,16.30
2011,08,29,01,09,16.40
2011,08,29,01,10,16.40
2011,08,29,01,11,16.30
2011,08,29,01,12,16.30
2011,08,29,01,13,16.30
2011,08,29,01,14,16.30
2011,08,29,01,15,16.30
2011,08,29,01,16,16.30
2011,08,29,01,17,16.30
2011,08,29,01,18,16.20
2011,08,29,01,19,16.20
2011,08,29,01,20,16.20
2011,08,29,01,21,16.20
2011,08,29,01,22,16.20
2011,08,29,01,23,16.10
2011,08,29,01,24,16.10
2011,08,29,01,25,16.10
2011,08,29,01,26,16.10
2011,08,29,01,27,16.10
2011,08,29,01,28,16.00
2011,08,29,01,29,16.00
2011,08,29,01,30,16.00
2011,08,29,01,31,15.90
2011,08,29,01,32,15.90
2011,08,29,01,33,15.90
2011,08,29,01,34,15.90
2011,08,29,01,35,15.90
2011,08,29,01,36,15.90
2011,08,29,01,37,15.90
2011,08,29,01,38,15.90
2011,08,29,01,39,15.90
2011,08,29,01,40,15.90
2011,08,29,01,41,15.80
2011,08,29,01,42,15.80
2011,08,29,01,43,15.80
2011,08,29,01,44,15.80
2011,08,29,01,45,15.80
2011,08,29,01,46,15.80
2011,08,29,01,47,15.80
2011,08,29,01,48,15.80
2011,08,29,01,49,15.80
2011,08,29,01,50,15.70
2011,08,29,01,51,15.70
2011,08,29,01,52,15.70
2011,08,29,01,53,15.70
2011,08,29,01,54,15.70
2011,08,29,01,55,15.70
2011,08,29,01,56,15.70
2011,08,29,01,57,15.60
2011,08,29,01,58,15.60
2011,08,29,01,59,15.60
2011,08,29,02,00,15.60
2011,08,29,02,01,15.60
2011,08,29,02,02,15.60
2011,08,29,02,03,15.50
2011,08,29,02,04,15.50
2011,08,29,02,05,15.50
2011,08,29,02,06,15.50
2011,08,29,02,07,15.50
2011,08,29,02,08,15.50
2011,08,29,02,09,15.50
2011,08,29,02,10,15.50
2011,08,29,02,11,15.40
2011,08,29,02,12,15.40
2011,08,29,02,13,15.40
2011,08,29,02,14,15.40
2011,08,29,02,15,15.40
2011,08,29,02,16,15.40
2011,08,29,02,17,15.40
2011,08,29,02,18,15.40
2011,08,29,02,19,15.40
2011,08,29,02,20,15.40
2011,08,29,02,21,15.40
2011,08,29,02,22,15.40
2011,08,29,02,23,15.40
2011,08,29,02,24,15.40
2011,08,29,02,25,15.30
2011,08,29,02,26,15.30
2011,08,29,02,27,15.30
2011,08,29,02,28,15.30
2011,08,29,02,29,15.30
2011,08,29,02,30,15.30
2011,08,29,02,31,15.30
2011,08,29,02,32,15.30
2011,08,29,02,33,15.30
2011,08,29,02,34,15.30
2011,08,29,02,35,15.30
2011,08,29,02,36,15.30
2011,08,29,02,37,15.20
2011,08,29,02,38,15.20
2011,08,29,02,39,15.20
2011,08,29,02,40,15.20
2011,08,29,02,41,15.20
2011,08,29,02,42,15.20
2011,08,29,02,43,15.20
2011,08,29,02,44,15.20
2011,08,29,02,45,15.20
2011,08,29,02,46,15.20
2011,08,29,02,47,15.10
2011,08,29,02,48,15.10
2011,08,29,02,49,15.10
2011,08,29,02,50,15.10
2011,08,29,02,51,15.10
2011,08,29,02,52,15.00
2011,08,29,02,53,15.00
2011,08,29,02,54,14.90
2011,08,29,02,55,14.90
2011,08,29,02,56,14.90
2011,08,29,02,57,14.90
2011,08,29,02,58,14.80
2011,08,29,02,59,14.80
2011,08,29,03,00,14.80
2011,08,29,03,01,14.80
2011,08,29,03,06,14.60
2011,08,29,03,07,14.60
2011,08,29,03,08,14.60
2011,08,29,03,09,14.60
2011,08,29,03,10,14.50
2011,08,29,03,11,14.50
2011,08,29,03,12,14.50
2011,08,29,03,13,14.40
2011,08,29,03,14,14.40
2011,08,29,03,15,14.40
2011,08,29,03,16,14.40
2011,08,29,03,17,14.30
2011,08,29,03,18,14.30
2011,08,29,03,19,14.30
2011,08,29,03,20,14.30
2011,08,29,03,21,14.30
2011,08,29,03,22,14.20
2011,08,29,03,23,14.20
2011,08,29,03,24,14.20
2011,08,29,03,25,14.20
2011,08,29,03,26,14.20
2011,08,29,03,27,14.10
2011,08,29,03,28,14.10
2011,08,29,03,29,14.10
2011,08,29,03,30,14.10
2011,08,29,03,31,14.10
2011,08,29,03,32,14.00
2011,08,29,03,33,14.00
2011,08,29,03,34,14.00
2011,08,29,03,35,13.90
2011,08,29,03,36,13.90
2011,08,29,03,37,13.90
2011,08,29,03,38,13.90
2011,08,29,03,39,13.90
2011,08,29,03,40,13.90
2011,08,29,03,41,13.80
2011,08,29,03,42,13.80
2011,08,29,03,43,13.80
2011,08,29,03,44,13.80
2011,08,29,03,45,13.80
2011,08,29,03,46,13.80
2011,08,29,03,47,13.80
2011,08,29,03,48,13.80
2011,08,29,03,49,13.80
2011,08,29,03,50,13.70
2011,08,29,03,51,13.70
2011,08,29,03,52,13.70
2011,08,29,03,53,13.70
2011,08,29,03,54,13.70
2011,08,29,03,55,13.70
2011,08,29,03,56,13.70
2011,08,29,03,57,13.60
2011,08,29,03,58,13.60
2011,08,29,03,59,13.60
2011,08,29,04,00,13.60
2011,08,29,04,01,13.60
2011,08,29,04,02,13.60
2011,08,29,04,03,13.60
2011,08,29,04,04,13.60
2011,08,29,04,05,13.60
2011,08,29,04,06,13.60
2011,08,29,04,07,13.60
2011,08,29,04,08,13.60
2011,08,29,04,09,13.50
2011,08,29,04,10,13.50
2011,08,29,04,11,13.50
2011,08,29,04,12,13.50
2011,08,29,04,13,13.50
2011,08,29,04,14,13.50
2011,08,29,04,15,13.50
2011,08,29,04,16,13.50
2011,08,29,04,17,13.50
2011,08,29,04,18,13.50
2011,08,29,04,19,13.40
2011,08,29,04,20,13.40
2011,08,29,04,21,13.40
2011,08,29,04,22,13.40
2011,08,29,04,23,13.40
2011,08,29,04,24,13.40
2011,08,29,04,25,13.40
2011,08,29,04,26,13.40
2011,08,29,04,27,13.40
2011,08,29,04,28,13.40
2011,08,29,04,29,13.40
2011,08,29,04,30,13.40
2011,08,29,04,31,13.40
2011,08,29,04,32,13.40
2011,08,29,04,33,13.40
2011,08,29,04,34,13.40
2011,08,29,04,35,13.40
2011,08,29,04,36,13.40
2011,08,29,04,37,13.40
2011,08,29,04,38,13.40
2011,08,29,04,39,13.40
2011,08,29,04,40,13.40
2011,08,29,04,41,13.50
2011,08,29,04,42,13.50
2011,08,29,04,43,13.50
2011,08,29,04,44,13.50
2011,08,29,04,45,13.50
2011,08,29,04,46,13.50
2011,08,29,04,47,13.50
2011,08,29,04,48,13.50
2011,08,29,04,49,13.50
2011,08,29,04,50,13.50
2011,08,29,04,51,13.50
2011,08,29,04,52,13.50
2011,08,29,04,53,13.50
2011,08,29,04,54,13.60
2011,08,29,04,55,13.60
2011,08,29,04,56,13.60
2011,08,29,04,57,13.60
2011,08,29,04,58,13.60
2011,08,29,04,59,13.60
2011,08,29,05,00,13.60
2011,08,29,05,01,13.60
2011,08,29,05,02,13.60
2011,08,29,05,03,13.60
2011,08,29,05,04,13.60
2011,08,29,05,05,13.60
2011,08,29,05,06,13.60
2011,08,29,05,07,13.60
2011,08,29,05,08,13.60
2011,08,29,05,09,13.60
2011,08,29,05,10,13.60
2011,08,29,05,11,13.60
2011,08,29,05,12,13.60
2011,08,29,05,13,13.60
2011,08,29,05,14,13.60
2011,08,29,05,15,13.60
2011,08,29,05,16,13.60
2011,08,29,05,17,13.70
2011,08,29,05,18,13.70
2011,08,29,05,19,13.70
2011,08,29,05,20,13.70
2011,08,29,05,21,13.70
2011,08,29,05,22,13.70
2011,08,29,05,23,13.70
2011,08,29,05,24,13.70
2011,08,29,05,25,13.80
2011,08,29,05,26,13.80
2011,08,29,05,27,13.80
2011,08,29,05,28,13.80
2011,08,29,05,29,13.80
2011,08,29,05,30,13.80
2011,08,29,05,31,13.80
2011,08,29,05,32,13.80
2011,08,29,05,33,13.80
2011,08,29,05,34,13.80
2011,08,29,05,35,13.80
2011,08,29,05,36,13.80
2011,08,29,05,37,13.80
2011,08,29,05,38,13.80
2011,08,29,05,39,13.80
2011,08,29,05,40,13.80
2011,08,29,05,41,13.80
2011,08,29,05,42,13.80
2011,08,29,05,43,13.80
2011,08,29,05,44,13.80
2011,08,29,05,45,13.80
2011,08,29,05,46,13.80
2011,08,29,05,47,13.80
2011,08,29,05,48,13.80
2011,08,29,05,49,13.80
2011,08,29,05,50,13.80
2011,08,29,05,51,13.80
2011,08,29,05,52,13.80
2011,08,29,05,53,13.90
2011,08,29,05,54,13.90
2011,08,29,05,55,13.90
2011,08,29,05,56,13.90
2011,08,29,05,57,13.90
2011,08,29,05,58,13.90
2011,08,29,05,59,13.90
2011,08,29,06,00,13.90
2011,08,29,06,01,13.90
2011,08,29,06,02,13.90
2011,08,29,06,03,13.90
2011,08,29,06,04,13.90
2011,08,29,06,05,13.90
2011,08,29,06,06,13.90
2011,08,29,06,07,13.90
2011,08,29,06,08,13.90
2011,08,29,06,09,13.90
2011,08,29,06,10,13.90
2011,08,29,06,11,13.90
2011,08,29,06,12,13.90
2011,08,29,06,13,13.90
2011,08,29,06,14,13.90
2011,08,29,06,15,13.90
2011,08,29,06,16,13.90
2011,08,29,06,17,13.90
2011,08,29,06,18,13.90
2011,08,29,06,19,13.90
2011,08,29,06,20,13.90
2011,08,29,06,21,14.00
2011,08,29,06,22,14.00
2011,08,29,06,23,14.00
2011,08,29,06,24,14.00
2011,08,29,06,25,14.00
2011,08,29,06,26,14.00
2011,08,29,06,27,14.00
2011,08,29,06,28,14.00
2011,08,29,06,29,14.00
2011,08,29,06,30,14.00
2011,08,29,06,31,14.10
2011,08,29,06,32,14.10
2011,08,29,06,33,14.10
2011,08,29,06,34,14.10
2011,08,29,06,35,14.10
2011,08,29,06,36,14.00
2011,08,29,06,37,14.00
2011,08,29,06,38,14.00
2011,08,29,06,39,14.00
2011,08,29,06,40,14.00
2011,08,29,06,41,14.00
2011,08,29,06,42,14.00
2011,08,29,06,43,14.00
2011,08,29,06,44,13.90
2011,08,29,06,45,13.90
2011,08,29,06,46,13.90
2011,08,29,06,47,13.90
2011,08,29,06,48,13.90
2011,08,29,06,49,13.90
2011,08,29,06,50,13.90
2011,08,29,06,51,13.80
2011,08,29,06,52,13.80
2011,08,29,06,53,13.80
2011,08,29,06,54,13.80
2011,08,29,06,55,13.80
2011,08,29,06,56,13.80
2011,08,29,06,57,13.80
2011,08,29,06,58,13.80
2011,08,29,06,59,13.80
2011,08,29,07,00,13.80
2011,08,29,07,01,13.80
2011,08,29,07,02,13.80
2011,08,29,07,03,13.80
2011,08,29,07,04,13.80
2011,08,29,07,05,13.80
2011,08,29,07,06,13.80
2011,08,29,07,07,13.80
2011,08,29,07,08,13.70
2011,08,29,07,09,13.70
2011,08,29,07,10,13.70
2011,08,29,07,11,13.70
2011,08,29,07,12,13.70
2011,08,29,07,13,13.70
2011,08,29,07,14,13.70
2011,08,29,07,15,13.70
2011,08,29,07,16,13.70
2011,08,29,07,17,13.70
2011,08,29,07,18,13.70
2011,08,29,07,19,13.80
2011,08,29,07,20,13.80
2011,08,29,07,21,13.80
2011,08,29,07,22,13.80
2011,08,29,07,23,13.80
2011,08,29,07,24,13.80
2011,08,29,07,25,13.80
2011,08,29,07,26,13.80
2011,08,29,07,27,13.80
2011,08,29,07,28,13.80
2011,08,29,07,29,13.80
2011,08,29,07,30,13.80
2011,08,29,07,31,13.90
2011,08,29,07,32,13.80
2011,08,29,07,33,13.90
2011,08,29,07,34,13.90
2011,08,29,07,35,13.90
2011,08,29,07,36,13.90
2011,08,29,07,37,13.90
2011,08,29,07,38,13.90
2011,08,29,07,39,13.90
2011,08,29,07,40,14.00
2011,08,29,07,41,14.00
2011,08,29,07,42,14.00
2011,08,29,07,43,14.00
2011,08,29,07,44,14.00
2011,08,29,07,45,14.10
2011,08,29,07,46,14.10
2011,08,29,07,47,14.10
2011,08,29,07,48,14.10
2011,08,29,07,49,14.20
2011,08,29,07,50,14.20
2011,08,29,07,51,14.30
2011,08,29,07,52,14.40
2011,08,29,07,53,14.40
2011,08,29,07,54,14.50
2011,08,29,07,55,14.50
2011,08,29,07,56,14.60
2011,08,29,07,57,14.70
2011,08,29,07,58,14.80
2011,08,29,07,59,14.90
2011,08,29,08,00,14.90
2011,08,29,08,01,15.00
2011,08,29,08,02,15.10
2011,08,29,08,03,15.10
2011,08,29,08,04,15.20
2011,08,29,08,05,15.20
2011,08,29,08,06,15.20
2011,08,29,08,07,15.30
2011,08,29,08,08,15.30
2011,08,29,08,09,15.40
2011,08,29,08,10,15.40
2011,08,29,08,11,15.40
2011,08,29,08,12,15.50
2011,08,29,08,13,15.50
2011,08,29,08,14,15.60
2011,08,29,08,15,15.60
2011,08,29,08,16,15.60
2011,08,29,08,17,15.60
2011,08,29,08,18,15.70
2011,08,29,08,19,15.70
2011,08,29,08,20,15.70
2011,08,29,08,21,15.70
2011,08,29,08,22,15.80
2011,08,29,08,23,15.80
2011,08,29,08,24,15.80
2011,08,29,08,25,15.90
2011,08,29,08,26,15.90
2011,08,29,08,27,16.00
2011,08,29,08,28,16.10
2011,08,29,08,29,16.20
2011,08,29,08,30,16.20
2011,08,29,08,31,16.30
2011,08,29,08,32,16.40
2011,08,29,08,33,16.50
2011,08,29,08,34,16.60
2011,08,29,08,35,16.70
2011,08,29,08,36,16.80
2011,08,29,08,37,16.90
2011,08,29,08,38,17.00
2011,08,29,08,39,17.10
2011,08,29,08,40,17.20
2011,08,29,08,41,17.30
2011,08,29,08,42,17.50
2011,08,29,08,43,17.70
2011,08,29,08,44,17.80
2011,08,29,08,45,18.00
2011,08,29,08,46,18.10
2011,08,29,08,47,18.20
2011,08,29,08,48,18.30
2011,08,29,08,49,18.40
2011,08,29,08,50,18.50
2011,08,29,08,51,18.60
2011,08,29,08,52,18.70
2011,08,29,08,53,18.80
2011,08,29,08,54,18.80
2011,08,29,08,55,18.90
2011,08,29,08,56,18.90
2011,08,29,08,57,18.90
2011,08,29,08,58,19.00
2011,08,29,08,59,19.00
2011,08,29,09,00,19.10
2011,08,29,09,01,19.10
2011,08,29,09,02,19.10
2011,08,29,09,03,19.10
2011,08,29,09,04,19.10
2011,08,29,09,05,19.20
2011,08,29,09,06,19.20
2011,08,29,09,07,19.30
2011,08,29,09,08,19.30
2011,08,29,09,09,19.40
2011,08,29,09,10,19.50
2011,08,29,09,11,19.50
2011,08,29,09,12,19.60
2011,08,29,09,13,19.60
2011,08,29,09,14,19.50
2011,08,29,09,15,19.50
2011,08,29,09,16,19.50
2011,08,29,09,17,19.50
2011,08,29,09,18,19.50
2011,08,29,09,19,19.50
2011,08,29,09,20,19.50
2011,08,29,09,21,19.50
2011,08,29,09,22,19.60
2011,08,29,09,23,19.60
2011,08,29,09,24,19.60
2011,08,29,09,25,19.70
2011,08,29,09,26,19.70
2011,08,29,09,27,19.70
2011,08,29,09,28,19.80
2011,08,29,09,29,19.80
2011,08,29,09,30,19.80
2011,08,29,09,31,19.80
2011,08,29,09,32,19.80
2011,08,29,09,33,19.80
2011,08,29,09,34,19.80
2011,08,29,09,35,19.80
2011,08,29,09,36,19.80
2011,08,29,09,37,19.80
2011,08,29,09,38,19.80
2011,08,29,09,39,19.70
2011,08,29,09,40,19.70
2011,08,29,09,41,19.70
2011,08,29,09,42,19.70
2011,08,29,09,43,19.70
2011,08,29,09,44,19.60
2011,08,29,09,45,19.70
2011,08,29,09,46,19.70
2011,08,29,09,47,19.70
2011,08,29,09,48,19.70
2011,08,29,09,49,19.70
2011,08,29,09,50,19.70
2011,08,29,09,51,19.70
2011,08,29,09,52,19.70
2011,08,29,09,53,19.70
2011,08,29,09,54,19.70
2011,08,29,09,55,19.70
2011,08,29,09,56,19.70
2011,08,29,09,57,19.70
2011,08,29,09,58,19.70
2011,08,29,09,59,19.70
2011,08,29,10,00,19.70
2011,08,29,10,01,19.80
2011,08,29,10,02,19.80
2011,08,29,10,03,19.80
2011,08,29,10,04,19.80
2011,08,29,10,05,19.90
2011,08,29,10,06,19.90
2011,08,29,10,07,20.00
2011,08,29,10,08,20.10
2011,08,29,10,09,20.20
2011,08,29,10,10,20.30
2011,08,29,10,11,20.30
2011,08,29,10,12,20.40
2011,08,29,10,13,20.40
2011,08,29,10,14,20.40
2011,08,29,10,15,20.40
2011,08,29,10,16,20.40
2011,08,29,10,17,20.50
2011,08,29,10,18,20.50
2011,08,29,10,19,20.60
2011,08,29,10,20,20.60
2011,08,29,10,21,20.60
2011,08,29,10,22,20.60
2011,08,29,10,23,20.50
2011,08,29,10,24,20.50
2011,08,29,10,25,20.50
2011,08,29,10,26,20.50
2011,08,29,10,27,20.60
2011,08,29,10,28,20.60
2011,08,29,10,29,20.70
2011,08,29,10,30,20.70
2011,08,29,10,31,20.80
2011,08,29,10,32,20.80
2011,08,29,10,33,20.80
2011,08,29,10,34,20.80
2011,08,29,10,35,20.80
2011,08,29,10,36,20.90
2011,08,29,10,37,20.90
2011,08,29,10,38,20.90
2011,08,29,10,39,21.00
2011,08,29,10,40,21.00
2011,08,29,10,41,21.00
2011,08,29,10,42,20.90
2011,08,29,10,43,20.90
2011,08,29,10,44,20.90
2011,08,29,10,45,21.00
2011,08,29,10,46,21.00
2011,08,29,10,47,21.10
2011,08,29,10,48,21.10
2011,08,29,10,49,21.20
2011,08,29,10,50,21.20
2011,08,29,10,51,21.20
2011,08,29,10,52,21.20
2011,08,29,10,53,21.30
2011,08,29,10,54,21.30
2011,08,29,10,55,21.30
2011,08,29,10,56,21.20
2011,08,29,10,57,21.20
2011,08,29,10,58,21.10
2011,08,29,10,59,21.10
2011,08,29,11,00,21.00
2011,08,29,11,01,21.00
2011,08,29,11,02,20.90
2011,08,29,11,03,20.90
2011,08,29,11,04,20.90
2011,08,29,11,05,21.00
2011,08,29,11,06,21.00
2011,08,29,11,07,21.10
2011,08,29,11,08,21.10
2011,08,29,11,09,21.10
2011,08,29,11,10,21.20
2011,08,29,11,11,21.20
2011,08,29,11,12,21.20
2011,08,29,11,13,21.20
2011,08,29,11,14,21.20
2011,08,29,11,15,21.30
2011,08,29,11,16,21.30
2011,08,29,11,17,21.30
2011,08,29,11,18,21.30
2011,08,29,11,19,21.40
2011,08,29,11,20,21.40
2011,08,29,11,21,21.40
2011,08,29,11,22,21.40
2011,08,29,11,23,21.40
2011,08,29,11,24,21.30
2011,08,29,11,25,21.30
2011,08,29,11,26,21.30
2011,08,29,11,27,21.30
2011,08,29,11,28,21.30
2011,08,29,11,29,21.30
2011,08,29,11,30,21.20
2011,08,29,11,31,21.20
2011,08,29,11,32,21.30
2011,08,29,11,33,21.30
2011,08,29,11,34,21.40
2011,08,29,11,35,21.40
2011,08,29,11,36,21.40
2011,08,29,11,37,21.30
2011,08,29,11,38,21.40
2011,08,29,11,39,21.40
2011,08,29,11,40,21.50
2011,08,29,11,41,21.50
2011,08,29,11,42,21.60
2011,08,29,11,43,21.60
2011,08,29,11,44,21.50
2011,08,29,11,45,21.60
2011,08,29,11,46,21.60
2011,08,29,11,47,21.60
2011,08,29,11,48,21.50
2011,08,29,11,49,21.60
2011,08,29,11,50,21.60
2011,08,29,11,51,21.60
2011,08,29,11,52,21.70
2011,08,29,11,53,21.70
2011,08,29,11,54,21.70
2011,08,29,11,55,21.70
2011,08,29,11,56,21.60
2011,08,29,11,57,21.60
2011,08,29,11,58,21.60
2011,08,29,11,59,21.60
2011,08,29,12,00,21.60
2011,08,29,12,01,21.60
2011,08,29,12,02,21.50
2011,08,29,12,03,21.50
2011,08,29,12,04,21.40
2011,08,29,12,05,21.40
2011,08,29,12,06,21.40
2011,08,29,12,07,21.30
2011,08,29,12,08,21.30
2011,08,29,12,09,21.30
2011,08,29,12,10,21.40
2011,08,29,12,11,21.40
2011,08,29,12,12,21.40
2011,08,29,12,13,21.40
2011,08,29,12,14,21.40
2011,08,29,12,15,21.40
2011,08,29,12,16,21.40
2011,08,29,12,17,21.40
2011,08,29,12,18,21.50
2011,08,29,12,19,21.60
2011,08,29,12,20,21.60
2011,08,29,12,21,21.70
2011,08,29,12,22,21.70
2011,08,29,12,23,21.70
2011,08,29,12,24,21.70
2011,08,29,12,25,21.70
2011,08,29,12,26,21.70
2011,08,29,12,27,21.60
2011,08,29,12,28,21.60
2011,08,29,12,29,21.60
2011,08,29,12,30,21.70
2011,08,29,12,31,21.70
2011,08,29,12,32,21.70
2011,08,29,12,33,21.70
2011,08,29,12,34,21.70
2011,08,29,12,35,21.70
2011,08,29,12,36,21.70
2011,08,29,12,37,21.60
2011,08,29,12,38,21.60
2011,08,29,12,39,21.70
2011,08,29,12,40,21.70
2011,08,29,12,41,21.70
2011,08,29,12,42,21.70
2011,08,29,12,43,21.70
2011,08,29,12,44,21.80
2011,08,29,12,45,21.80
2011,08,29,12,46,21.80
2011,08,29,12,47,21.80
2011,08,29,12,48,21.80
2011,08,29,12,49,21.80
2011,08,29,12,50,21.80
2011,08,29,12,51,21.70
2011,08,29,12,52,21.70
2011,08,29,12,53,21.70
2011,08,29,12,54,21.60
2011,08,29,12,55,21.60
2011,08,29,12,56,21.50
2011,08,29,12,57,21.40
2011,08,29,12,58,21.40
2011,08,29,12,59,21.30
2011,08,29,13,00,21.30
2011,08,29,13,01,21.20
2011,08,29,13,02,21.20
2011,08,29,13,03,21.10
2011,08,29,13,04,21.10
2011,08,29,13,05,21.20
2011,08,29,13,06,21.20
2011,08,29,13,07,21.30
2011,08,29,13,08,21.30
2011,08,29,13,09,21.30
2011,08,29,13,10,21.30
2011,08,29,13,11,21.30
2011,08,29,13,12,21.30
2011,08,29,13,13,21.30
2011,08,29,13,14,21.40
2011,08,29,13,15,21.40
2011,08,29,13,16,21.50
2011,08,29,13,17,21.50
2011,08,29,13,18,21.50
2011,08,29,13,19,21.60
2011,08,29,13,20,21.60
2011,08,29,13,21,21.70
2011,08,29,13,22,21.70
2011,08,29,13,23,21.80
2011,08,29,13,24,21.90
2011,08,29,13,25,21.90
2011,08,29,13,26,21.80
2011,08,29,13,27,21.80
2011,08,29,13,28,21.80
2011,08,29,13,29,21.80
2011,08,29,13,30,21.80
2011,08,29,13,31,21.90
2011,08,29,13,32,21.90
2011,08,29,13,33,22.00
2011,08,29,13,34,22.00
2011,08,29,13,35,22.00
2011,08,29,13,36,22.10
2011,08,29,13,37,22.20
2011,08,29,13,38,22.20
2011,08,29,13,39,22.20
2011,08,29,13,40,22.20
2011,08,29,13,41,22.10
2011,08,29,13,42,22.00
2011,08,29,13,43,21.90
2011,08,29,13,44,21.80
2011,08,29,13,45,21.80
2011,08,29,13,46,21.90
2011,08,29,13,47,21.90
2011,08,29,13,48,21.90
2011,08,29,13,49,21.90
2011,08,29,13,50,21.80
2011,08,29,13,51,21.80
2011,08,29,13,52,21.80
2011,08,29,13,53,21.90
2011,08,29,13,54,22.00
2011,08,29,13,55,22.10
2011,08,29,13,56,22.10
2011,08,29,13,57,22.20
2011,08,29,13,58,22.20
2011,08,29,13,59,22.10
2011,08,29,14,00,22.10
2011,08,29,14,01,22.00
2011,08,29,14,02,21.90
2011,08,29,14,03,21.90
2011,08,29,14,04,21.80
2011,08,29,14,05,21.80
2011,08,29,14,06,21.70
2011,08,29,14,07,21.60
2011,08,29,14,08,21.60
2011,08,29,14,09,21.60
2011,08,29,14,10,21.60
2011,08,29,14,11,21.60
2011,08,29,14,12,21.60
2011,08,29,14,13,21.70
2011,08,29,14,14,21.70
2011,08,29,14,15,21.70
2011,08,29,14,16,21.70
2011,08,29,14,17,21.60
2011,08,29,14,18,21.60
2011,08,29,14,19,21.60
2011,08,29,14,20,21.60
2011,08,29,14,21,21.70
2011,08,29,14,22,21.60
2011,08,29,14,23,21.50
2011,08,29,14,24,21.40
2011,08,29,14,25,21.40
2011,08,29,14,26,21.30
2011,08,29,14,27,21.30
2011,08,29,14,28,21.20
2011,08,29,14,29,21.10
2011,08,29,14,30,21.00
2011,08,29,14,31,20.90
2011,08,29,14,32,20.80
2011,08,29,14,33,20.80
2011,08,29,14,34,20.70
2011,08,29,14,35,20.70
2011,08,29,14,36,20.70
2011,08,29,14,37,20.70
2011,08,29,14,38,20.60
2011,08,29,14,39,20.60
2011,08,29,14,40,20.50
2011,08,29,14,41,20.40
2011,08,29,14,42,20.30
2011,08,29,14,43,20.30
2011,08,29,14,44,20.20
2011,08,29,14,45,20.10
2011,08,29,14,46,20.00
2011,08,29,14,47,20.00
2011,08,29,14,48,19.90
2011,08,29,14,49,19.90
2011,08,29,14,50,19.90
2011,08,29,14,51,19.90
2011,08,29,14,52,19.90
2011,08,29,14,53,19.90
2011,08,29,14,54,20.00
2011,08,29,14,55,20.00
2011,08,29,14,56,20.10
2011,08,29,14,57,20.10
2011,08,29,14,58,20.10
2011,08,29,14,59,20.10
2011,08,29,15,00,20.10
2011,08,29,15,01,20.10
2011,08,29,15,02,20.00
2011,08,29,15,03,20.00
2011,08,29,15,04,20.00
2011,08,29,15,05,20.00
2011,08,29,15,06,20.00
2011,08,29,15,07,20.00
2011,08,29,15,08,20.00
2011,08,29,15,09,19.90
2011,08,29,15,10,19.80
2011,08,29,15,11,19.80
2011,08,29,15,12,19.70
2011,08,29,15,13,19.70
2011,08,29,15,14,19.60
2011,08,29,15,15,19.50
2011,08,29,15,16,19.40
2011,08,29,15,17,19.40
2011,08,29,15,18,19.30
2011,08,29,15,19,19.30
2011,08,29,15,20,19.30
2011,08,29,15,21,19.30
2011,08,29,15,22,19.30
2011,08,29,15,23,19.30
2011,08,29,15,24,19.30
2011,08,29,15,25,19.30
2011,08,29,15,26,19.20
2011,08,29,15,27,19.20
2011,08,29,15,28,19.20
2011,08,29,15,29,19.20
2011,08,29,15,30,19.20
2011,08,29,15,31,19.20
2011,08,29,15,32,19.20
2011,08,29,15,33,19.20
2011,08,29,15,34,19.20
2011,08,29,15,35,19.20
2011,08,29,15,36,19.20
2011,08,29,15,37,19.20
2011,08,29,15,38,19.30
2011,08,29,15,39,19.30
2011,08,29,15,40,19.30
2011,08,29,15,41,19.40
2011,08,29,15,42,19.40
2011,08,29,15,43,19.50
2011,08,29,15,44,19.50
2011,08,29,15,45,19.60
2011,08,29,15,46,19.60
2011,08,29,15,47,19.60
2011,08,29,15,48,19.60
2011,08,29,15,49,19.60
2011,08,29,15,50,19.60
2011,08,29,15,51,19.60
2011,08,29,15,52,19.60
2011,08,29,15,53,19.60
2011,08,29,15,54,19.60
2011,08,29,15,55,19.60
2011,08,29,15,56,19.60
2011,08,29,15,57,19.60
2011,08,29,15,58,19.60
2011,08,29,15,59,19.60
2011,08,29,16,00,19.60
2011,08,29,16,01,19.60
2011,08,29,16,02,19.60
2011,08,29,16,03,19.60
2011,08,29,16,04,19.50
2011,08,29,16,05,19.50
2011,08,29,16,06,19.40
2011,08,29,16,07,19.30
2011,08,29,16,08,19.30
2011,08,29,16,09,19.20
2011,08,29,16,10,19.20
2011,08,29,16,11,19.20
2011,08,29,16,12,19.20
2011,08,29,16,13,19.20
2011,08,29,16,14,19.20
2011,08,29,16,15,19.20
2011,08,29,16,16,19.20
2011,08,29,16,17,19.20
2011,08,29,16,18,19.20
2011,08,29,16,19,19.20
2011,08,29,16,20,19.20
2011,08,29,16,21,19.20
2011,08,29,16,22,19.20
2011,08,29,16,23,19.20
2011,08,29,16,24,19.30
2011,08,29,16,25,19.30
2011,08,29,16,26,19.30
2011,08,29,16,27,19.30
2011,08,29,16,28,19.30
2011,08,29,16,29,19.40
2011,08,29,16,30,19.40
2011,08,29,16,31,19.40
2011,08,29,16,32,19.40
2011,08,29,16,33,19.40
2011,08,29,16,34,19.40
2011,08,29,16,35,19.40
2011,08,29,16,36,19.40
2011,08,29,16,37,19.50
2011,08,29,16,38,19.50
2011,08,29,16,39,19.50
2011,08,29,16,40,19.60
2011,08,29,16,41,19.70
2011,08,29,16,42,19.70
2011,08,29,16,43,19.80
2011,08,29,16,44,19.80
2011,08,29,16,45,19.80
2011,08,29,16,46,19.80
2011,08,29,16,47,19.80
2011,08,29,16,48,19.90
2011,08,29,16,49,19.90
2011,08,29,16,50,19.90
2011,08,29,16,51,20.00
2011,08,29,16,52,20.00
2011,08,29,16,53,20.10
2011,08,29,16,54,20.10
2011,08,29,16,55,20.10
2011,08,29,16,56,20.20
2011,08,29,16,57,20.20
2011,08,29,16,58,20.30
2011,08,29,16,59,20.30
2011,08,29,17,00,20.30
2011,08,29,17,01,20.30
2011,08,29,17,02,20.30
2011,08,29,17,03,20.30
2011,08,29,17,04,20.30
2011,08,29,17,05,20.20
2011,08,29,17,06,20.20
2011,08,29,17,07,20.20
2011,08,29,17,08,20.20
2011,08,29,17,09,20.20
2011,08,29,17,10,20.20
2011,08,29,17,11,20.20
2011,08,29,17,12,20.20
2011,08,29,17,13,20.20
2011,08,29,17,14,20.10
2011,08,29,17,15,20.10
2011,08,29,17,16,20.10
2011,08,29,17,17,20.00
2011,08,29,17,18,20.00
2011,08,29,17,19,20.00
2011,08,29,17,20,20.00
2011,08,29,17,21,20.10
2011,08,29,17,22,20.10
2011,08,29,17,23,20.10